Date,Time,Wetness (Wet Dry or Ice),Wind Speed (m/s),Temperature (C),Humidity (%),Pressure (mb),Radiation (W/m^2)
2020-12-11,04:10:00,DRY,4.53,8.83,22.0,778.00,1.0
2020-12-11,04:15:00,DRY,5.90,8.85,22.0,778.00,1.2
2020-12-11,04:20:00,DRY,6.30,8.93,22.3,778.00,1.0
2020-12-11,04:25:00,DRY,5.35,9.00,23.0,778.00,0.9
2020-12-11,04:30:00,DRY,4.13,9.13,23.0,778.00,0.9
2020-12-11,04:35:00,DRY,6.55,9.00,22.5,778.00,1.2
2020-12-11,04:40:00,DRY,5.80,8.87,23.7,778.00,1.4
2020-12-11,04:45:00,DRY,4.05,8.90,23.0,778.00,1.1
2020-12-11,04:50:00,DRY,4.37,8.90,24.0,778.00,1.1
2020-12-11,04:55:00,DRY,5.05,9.05,23.5,778.00,1.8
2020-12-11,05:00:00,DRY,5.33,9.00,24.0,778.00,1.2
2020-12-11,05:05:00,DRY,4.40,8.80,23.0,778.00,1.2
2020-12-11,05:10:00,DRY,5.87,8.73,23.3,778.00,1.4
2020-12-11,05:15:00,DRY,7.25,8.80,23.0,778.00,1.1
2020-12-11,05:20:00,DRY,6.13,8.60,23.0,778.00,1.6
2020-12-11,05:25:00,DRY,7.50,8.75,22.5,778.00,1.2
2020-12-11,05:30:00,DRY,6.13,8.63,22.0,778.00,0.9
2020-12-11,05:35:00,DRY,5.05,8.45,20.0,778.00,0.7
2020-12-11,05:40:00,DRY,6.03,8.43,21.3,778.00,1.1
2020-12-11,05:45:00,DRY,8.90,8.55,21.0,778.00,1.2
2020-12-11,05:50:00,DRY,5.77,8.77,22.3,778.00,0.8
2020-12-11,05:55:00,DRY,7.40,9.00,23.0,778.00,1.3
2020-12-11,06:00:00,DRY,6.90,9.07,25.3,778.00,1.2
2020-12-11,06:05:00,DRY,4.20,9.05,25.5,778.00,0.8
2020-12-11,06:10:00,DRY,4.67,8.80,27.3,778.00,1.0
2020-12-11,06:15:00,DRY,6.35,8.85,29.5,778.00,1.1
2020-12-11,06:20:00,DRY,4.90,8.83,31.3,778.00,1.1
2020-12-11,06:25:00,DRY,5.10,8.80,33.5,778.00,1.1
2020-12-11,06:30:00,DRY,4.70,8.73,34.0,778.00,1.9
2020-12-11,06:35:00,DRY,5.45,8.70,36.5,778.00,1.1
2020-12-11,06:40:00,DRY,6.90,8.83,38.0,778.00,0.8
2020-12-11,06:45:00,DRY,6.55,8.75,38.0,778.50,1.1
2020-12-11,06:50:00,DRY,8.53,8.63,39.3,778.33,1.4
2020-12-11,06:55:00,DRY,7.90,8.50,42.0,779.00,1.1
2020-12-11,07:00:00,DRY,6.67,8.37,41.7,778.33,1.2
2020-12-11,07:05:00,DRY,7.10,8.45,44.5,779.00,1.1
2020-12-11,07:10:00,DRY,8.53,8.43,46.3,778.33,1.1
2020-12-11,07:15:00,DRY,8.55,8.30,47.5,779.00,0.9
2020-12-11,07:20:00,DRY,6.20,8.17,48.0,779.00,0.6
2020-12-11,07:25:00,DRY,7.50,8.15,47.5,779.00,0.8
2020-12-11,07:30:00,DRY,6.93,8.27,50.3,778.67,1.1
2020-12-11,07:35:00,DRY,7.75,8.40,52.0,779.00,1.4
2020-12-11,07:40:00,DRY,6.27,8.43,52.0,779.00,2.1
2020-12-11,07:45:00,DRY,9.45,8.55,52.0,779.00,3.3
2020-12-11,07:50:00,DRY,5.73,8.50,51.0,779.00,4.7
2020-12-11,07:55:00,DRY,7.35,8.65,50.5,779.00,7.4
2020-12-11,08:00:00,DRY,6.40,8.63,50.7,779.00,9.8
2020-12-11,08:05:00,DRY,4.50,8.65,51.0,779.00,11.6
2020-12-11,08:10:00,DRY,6.17,8.73,51.3,779.00,13.9
2020-12-11,08:15:00,DRY,8.65,8.75,51.5,779.00,15.9
2020-12-11,08:20:00,DRY,6.73,8.93,51.7,779.00,17.8
2020-12-11,08:25:00,DRY,7.65,9.10,52.5,779.00,19.4
2020-12-11,08:30:00,DRY,7.23,9.37,52.7,779.00,22.3
2020-12-11,08:35:00,DRY,6.15,9.50,52.0,779.00,42.0
2020-12-11,08:40:00,DRY,7.17,9.60,52.0,779.00,164.0
2020-12-11,08:45:00,DRY,4.75,9.65,51.5,779.00,182.4
2020-12-11,08:50:00,DRY,4.70,9.63,52.0,779.00,201.8
2020-12-11,08:55:00,DRY,4.90,9.60,52.5,779.00,222.1
2020-12-11,09:00:00,DRY,3.80,9.80,52.0,779.00,241.7
2020-12-11,09:05:00,DRY,3.90,9.90,51.0,779.00,260.5
2020-12-11,09:10:00,DRY,4.43,9.60,52.3,779.00,280.6
2020-12-11,09:15:00,DRY,5.05,9.50,53.0,779.00,299.4
2020-12-11,09:20:00,DRY,4.33,9.50,53.3,779.00,318.6
2020-12-11,09:25:00,DRY,3.00,9.55,54.0,779.00,337.5
2020-12-11,09:30:00,DRY,3.23,9.60,54.3,779.00,356.1
2020-12-11,09:35:00,DRY,4.55,9.60,53.5,779.00,374.9
2020-12-11,09:40:00,DRY,2.90,9.40,54.7,779.00,391.7
2020-12-11,09:45:00,DRY,4.85,9.35,54.5,779.00,409.8
2020-12-11,09:50:00,DRY,3.53,9.27,54.0,779.00,427.6
2020-12-11,09:55:00,DRY,5.30,9.20,54.0,779.00,443.8
2020-12-11,10:00:00,DRY,3.67,9.40,54.0,779.00,460.8
2020-12-11,10:05:00,DRY,3.85,9.50,56.0,779.00,477.1
2020-12-11,10:10:00,DRY,3.17,9.40,55.0,779.33,493.5
2020-12-11,10:15:00,DRY,4.10,9.50,55.5,779.50,508.9
2020-12-11,10:20:00,DRY,4.20,9.60,56.0,779.67,523.5
2020-12-11,10:25:00,DRY,4.55,9.65,56.5,780.00,537.7
2020-12-11,10:30:00,DRY,3.87,9.40,59.3,780.00,552.5
2020-12-11,10:35:00,DRY,7.15,9.20,61.0,779.00,566.4
2020-12-11,10:40:00,DRY,6.10,9.43,59.0,779.67,579.7
2020-12-11,10:45:00,DRY,5.90,9.30,59.5,780.00,593.0
2020-12-11,10:50:00,DRY,4.43,9.43,59.3,779.67,605.9
2020-12-11,10:55:00,DRY,6.80,9.55,59.5,779.50,617.5
2020-12-11,11:00:00,DRY,5.73,9.57,60.3,780.00,629.9
2020-12-11,11:05:00,DRY,4.65,9.75,59.5,780.00,641.4
2020-12-11,11:10:00,DRY,4.53,9.97,56.3,780.00,653.0
2020-12-11,11:15:00,DRY,4.70,10.15,56.0,779.50,663.0
2020-12-11,11:20:00,DRY,4.50,10.23,57.0,780.00,673.9
2020-12-11,11:25:00,DRY,4.50,10.30,56.5,780.00,683.7
2020-12-11,11:30:00,DRY,6.67,10.17,56.3,779.67,693.1
2020-12-11,11:35:00,DRY,3.80,10.10,57.5,780.00,701.1
2020-12-11,11:40:00,DRY,4.67,10.13,56.7,779.33,708.8
2020-12-11,11:45:00,DRY,5.30,10.25,56.0,779.00,717.3
2020-12-11,11:50:00,DRY,3.90,10.40,55.7,779.00,724.1
2020-12-11,11:55:00,DRY,1.75,10.45,59.0,779.50,731.9
2020-12-11,12:00:00,DRY,3.13,10.20,57.0,779.00,737.6
2020-12-11,12:05:00,DRY,2.45,10.30,57.0,779.00,743.0
2020-12-11,12:10:00,DRY,3.77,10.40,55.7,779.00,749.3
2020-12-11,12:15:00,DRY,1.90,10.30,57.5,779.00,754.5
2020-12-11,12:20:00,DRY,3.10,10.17,57.0,779.00,758.1
2020-12-11,12:25:00,DRY,2.65,9.95,63.5,779.00,763.0
2020-12-11,12:30:00,DRY,3.43,10.10,58.3,779.00,764.9
2020-12-11,12:35:00,DRY,2.80,10.30,63.5,779.00,769.0
2020-12-11,12:40:00,DRY,1.73,10.30,61.7,779.00,772.7
2020-12-11,12:45:00,DRY,2.05,10.05,62.5,779.00,773.5
2020-12-11,12:50:00,DRY,1.87,10.03,65.3,779.00,773.5
2020-12-11,12:55:00,DRY,3.80,10.05,61.0,779.00,775.5
2020-12-11,13:00:00,DRY,2.13,10.17,60.7,779.00,775.0
2020-12-11,13:05:00,DRY,3.30,10.35,55.5,778.50,776.2
2020-12-11,13:10:00,DRY,2.53,10.13,60.0,779.00,776.3
2020-12-11,13:15:00,DRY,2.15,9.90,62.0,779.00,773.9
2020-12-11,13:20:00,DRY,3.33,9.87,60.7,779.00,773.1
2020-12-11,13:25:00,DRY,4.55,9.80,65.0,779.00,768.9
2020-12-11,13:30:00,DRY,4.40,9.70,61.0,779.00,770.2
2020-12-11,13:35:00,DRY,11.30,10.00,62.0,778.00,764.8
2020-12-11,13:40:00,DRY,2.27,9.87,64.7,778.33,761.8
2020-12-11,13:45:00,DRY,3.35,9.60,68.5,778.00,758.4
2020-12-11,13:50:00,DRY,4.20,9.63,63.0,778.00,753.2
2020-12-11,13:55:00,DRY,4.15,9.80,63.5,778.00,747.7
2020-12-11,14:00:00,DRY,2.33,9.87,67.0,778.00,741.8
2020-12-11,14:05:00,DRY,1.90,9.85,62.0,778.00,736.4
2020-12-11,14:10:00,DRY,3.97,9.93,63.7,778.00,731.0
2020-12-11,14:15:00,DRY,3.50,9.75,64.0,778.00,723.8
2020-12-11,14:20:00,DRY,1.93,9.93,65.0,778.00,714.6
2020-12-11,14:25:00,DRY,1.15,10.30,66.5,778.00,707.5
2020-12-11,14:30:00,DRY,3.73,9.97,64.0,778.00,699.0
2020-12-11,14:35:00,DRY,2.80,10.05,66.0,778.00,691.8
2020-12-11,14:40:00,DRY,4.03,9.63,68.7,778.00,682.4
2020-12-11,14:45:00,DRY,1.65,9.50,69.0,778.00,672.0
2020-12-11,14:50:00,DRY,2.67,9.50,67.0,778.00,661.0
2020-12-11,14:55:00,DRY,5.40,9.10,69.5,778.00,649.8
2020-12-11,15:00:00,DRY,2.13,9.40,71.7,778.00,639.9
2020-12-11,15:05:00,DRY,3.55,9.20,68.0,777.50,627.0
2020-12-11,15:10:00,DRY,3.43,9.37,69.0,778.00,615.3
2020-12-11,15:15:00,DRY,3.65,9.10,68.0,777.50,603.4
2020-12-11,15:20:00,DRY,5.10,9.00,70.7,778.00,589.9
2020-12-11,15:25:00,DRY,5.15,8.95,67.5,778.00,576.5
2020-12-11,15:30:00,DRY,5.70,8.97,69.0,777.67,561.6
2020-12-11,15:35:00,DRY,5.10,9.05,65.5,778.00,548.9
2020-12-11,15:40:00,DRY,3.93,9.13,69.3,778.00,533.3
2020-12-11,15:45:00,DRY,5.10,9.10,70.0,777.50,518.6
2020-12-11,15:50:00,DRY,3.23,8.97,70.3,778.00,504.0
2020-12-11,15:55:00,DRY,2.05,9.00,68.0,777.50,488.4
2020-12-11,16:00:00,DRY,3.30,8.90,69.7,777.67,471.9
2020-12-11,16:05:00,DRY,2.85,8.70,77.0,778.00,454.1
2020-12-11,16:10:00,DRY,5.40,8.63,71.3,777.33,438.1
2020-12-11,16:15:00,DRY,3.15,8.60,71.5,777.00,420.6
2020-12-11,16:20:00,DRY,4.27,8.60,73.0,777.33,402.9
2020-12-11,16:25:00,DRY,3.70,8.40,73.5,777.00,385.2
2020-12-11,16:30:00,DRY,2.97,8.40,75.0,777.33,366.3
2020-12-11,16:35:00,DRY,2.70,8.25,79.5,777.00,347.4
2020-12-11,16:40:00,DRY,6.63,8.20,77.7,777.00,329.5
2020-12-11,16:45:00,DRY,3.80,8.10,77.5,777.00,311.3
2020-12-11,16:50:00,DRY,4.83,8.10,78.3,777.33,290.9
2020-12-11,16:55:00,DRY,3.45,8.05,75.5,777.00,272.9
2020-12-11,17:00:00,DRY,3.73,8.13,77.3,777.33,253.5
2020-12-11,17:05:00,DRY,4.30,8.10,75.5,777.50,234.0
2020-12-11,17:10:00,DRY,4.30,8.03,76.7,778.00,215.8
2020-12-11,17:15:00,DRY,3.30,8.05,78.0,778.00,197.4
2020-12-11,17:20:00,DRY,4.17,7.73,79.0,777.00,179.7
2020-12-11,17:25:00,DRY,3.15,7.65,81.5,778.00,162.1
2020-12-11,17:30:00,DRY,5.23,7.80,78.7,777.00,143.7
2020-12-11,17:35:00,DRY,5.60,7.90,77.0,777.50,120.2
2020-12-11,17:40:00,DRY,6.67,7.93,75.3,777.67,95.7
2020-12-11,17:45:00,DRY,5.40,7.90,76.5,778.00,73.5
2020-12-11,17:50:00,DRY,7.47,8.17,69.7,777.67,54.9
2020-12-11,17:55:00,DRY,8.15,8.30,66.0,778.00,39.0
2020-12-11,18:00:00,DRY,8.13,8.33,65.0,777.67,26.7
2020-12-11,18:05:00,DRY,6.10,8.35,65.5,778.00,17.6
2020-12-11,18:10:00,DRY,6.47,8.27,65.7,777.67,13.7
2020-12-11,18:15:00,DRY,5.25,8.30,65.5,778.00,10.6
2020-12-11,18:20:00,DRY,5.03,8.27,64.7,777.67,6.0
2020-12-11,18:25:00,DRY,7.85,8.15,65.5,778.00,3.2
2020-12-11,18:30:00,DRY,7.67,8.17,64.7,777.00,2.0
2020-12-11,18:35:00,DRY,5.90,8.20,63.0,777.50,1.4
2020-12-11,18:40:00,DRY,7.70,8.23,61.3,778.00,1.0
2020-12-11,18:45:00,DRY,4.35,8.30,60.5,778.00,1.3
2020-12-11,18:50:00,DRY,5.33,8.37,60.0,778.00,1.5
2020-12-11,18:55:00,DRY,7.95,8.35,62.5,778.00,1.6
2020-12-11,19:00:00,DRY,5.77,8.47,58.7,778.00,1.6
2020-12-11,19:05:00,DRY,4.00,8.50,59.0,778.00,1.1
2020-12-11,19:10:00,DRY,4.67,8.77,54.7,778.00,1.2
2020-12-11,19:15:00,DRY,7.30,8.85,52.5,778.00,1.1
2020-12-11,19:20:00,DRY,6.37,8.87,52.0,778.00,1.9
2020-12-11,19:25:00,DRY,7.05,8.80,53.5,778.00,1.0
2020-12-11,19:30:00,DRY,7.40,8.77,55.3,778.00,1.8
2020-12-11,19:35:00,DRY,8.45,8.55,57.5,778.00,2.7
2020-12-11,19:40:00,DRY,8.67,8.37,62.0,778.00,1.7
2020-12-11,19:45:00,DRY,8.50,7.95,68.5,778.00,1.4
2020-12-11,19:50:00,DRY,8.03,7.77,71.7,778.00,1.3
2020-12-11,19:55:00,DRY,7.45,7.70,73.5,778.00,1.2
2020-12-11,20:00:00,DRY,8.53,7.53,75.3,778.00,1.2
2020-12-11,20:05:00,DRY,6.95,7.55,76.0,778.00,1.4
2020-12-11,20:10:00,DRY,8.03,7.50,76.0,778.00,1.3
2020-12-11,20:15:00,DRY,10.00,7.65,73.0,778.00,1.1
2020-12-11,20:20:00,DRY,7.37,7.70,73.3,778.00,1.2
2020-12-11,20:25:00,DRY,7.90,7.55,74.0,778.00,1.5
2020-12-11,20:30:00,DRY,7.23,7.63,75.3,778.00,1.3
2020-12-11,20:35:00,DRY,7.80,7.70,72.5,778.00,1.2
2020-12-11,20:40:00,DRY,4.27,7.70,72.3,778.00,1.2
2020-12-11,20:45:00,DRY,6.85,7.65,73.0,778.00,1.3
2020-12-11,20:50:00,DRY,6.93,7.77,70.7,778.33,1.2
2020-12-11,20:55:00,DRY,7.90,7.85,69.5,778.00,1.2
2020-12-11,21:00:00,DRY,8.13,7.77,71.0,778.00,1.4
2020-12-11,21:05:00,DRY,6.60,7.60,72.0,778.00,1.1
2020-12-11,21:10:00,DRY,7.67,7.70,71.3,778.00,1.5
2020-12-11,21:15:00,DRY,8.05,7.80,68.5,778.50,1.7
2020-12-11,21:20:00,DRY,8.27,7.90,68.0,778.00,1.5
2020-12-11,21:25:00,DRY,7.10,7.85,68.0,778.50,2.4
2020-12-11,21:30:00,DRY,6.80,7.93,66.3,778.67,1.1
2020-12-11,21:35:00,DRY,6.40,8.05,61.0,779.00,1.1
2020-12-11,21:40:00,DRY,6.93,8.20,60.3,779.00,1.3
2020-12-11,21:45:00,DRY,7.95,8.30,58.5,778.50,1.2
2020-12-11,21:50:00,DRY,7.63,8.37,57.3,778.33,1.5
2020-12-11,21:55:00,DRY,8.45,8.50,57.0,779.00,0.9
2020-12-11,22:00:00,DRY,9.47,8.33,61.3,778.67,1.1
2020-12-11,22:05:00,DRY,8.80,8.20,57.0,779.00,1.1
2020-12-11,22:10:00,DRY,8.13,8.17,62.3,778.67,0.8
2020-12-11,22:15:00,DRY,7.30,8.15,61.0,779.00,1.0
2020-12-11,22:20:00,DRY,6.67,8.40,56.0,778.33,1.2
2020-12-11,22:25:00,DRY,9.05,8.30,57.5,778.50,1.2
2020-12-11,22:30:00,DRY,6.27,8.30,57.3,778.33,1.3
2020-12-11,22:35:00,DRY,6.30,8.65,53.0,778.00,1.4
2020-12-11,22:40:00,DRY,4.70,8.73,52.3,778.00,1.3
2020-12-11,22:45:00,DRY,4.55,8.65,54.5,778.50,1.3
2020-12-11,22:50:00,DRY,8.30,8.77,51.0,778.67,1.2
2020-12-11,22:55:00,DRY,6.45,8.80,51.0,778.00,1.2
2020-12-11,23:00:00,DRY,8.20,8.93,51.0,779.00,1.2
2020-12-11,23:05:00,DRY,4.50,8.90,50.0,779.00,1.1
2020-12-11,23:10:00,DRY,4.27,8.67,54.0,778.67,1.2
2020-12-11,23:15:00,DRY,4.15,8.50,55.5,779.00,1.6
2020-12-11,23:20:00,DRY,5.40,8.53,55.7,779.00,1.5
2020-12-11,23:25:00,DRY,5.15,8.50,55.5,779.00,1.6
2020-12-11,23:30:00,DRY,4.57,8.40,56.0,779.00,1.3
2020-12-11,23:35:00,DRY,6.50,8.45,56.0,779.00,0.8
2020-12-11,23:40:00,DRY,6.03,8.53,57.0,779.00,1.1
2020-12-11,23:45:00,DRY,3.70,8.35,57.0,779.00,1.2
2020-12-11,23:50:00,DRY,5.77,8.57,56.3,779.00,1.3
2020-12-11,23:55:00,DRY,7.85,8.50,54.5,779.00,1.5
2020-12-12,00:00:00,DRY,5.20,8.60,55.3,779.00,1.1
2020-12-12,00:05:00,DRY,4.45,8.55,56.0,779.00,1.3
2020-12-12,00:10:00,DRY,4.00,8.70,52.7,779.00,0.9
2020-12-12,00:15:00,DRY,5.10,8.55,54.5,779.00,1.1
2020-12-12,00:20:00,DRY,4.57,8.57,55.0,779.00,1.0
2020-12-12,00:25:00,DRY,2.15,8.50,54.0,779.00,1.2
2020-12-12,00:30:00,DRY,4.00,8.57,55.3,778.67,1.3
2020-12-12,00:35:00,DRY,4.30,8.60,56.0,778.50,1.1
2020-12-12,00:40:00,DRY,3.53,8.40,57.3,779.00,1.4
2020-12-12,00:45:00,DRY,3.40,8.25,60.0,779.00,1.2
2020-12-12,00:50:00,DRY,2.97,8.57,55.3,778.33,1.5
2020-12-12,00:55:00,DRY,1.80,8.35,60.0,778.50,1.5
2020-12-12,01:00:00,DRY,2.97,8.10,60.7,778.33,1.3
2020-12-12,01:05:00,DRY,2.70,8.25,58.5,778.00,1.4
2020-12-12,01:10:00,DRY,2.33,8.17,61.3,778.00,0.8
2020-12-12,01:15:00,DRY,2.30,8.00,63.0,779.00,1.7
2020-12-12,01:20:00,DRY,2.43,7.97,61.3,778.00,1.0
2020-12-12,01:25:00,DRY,3.65,8.10,62.5,778.50,1.4
2020-12-12,01:30:00,DRY,3.03,8.23,57.3,778.00,1.0
2020-12-12,01:35:00,DRY,2.55,7.95,62.0,778.00,2.1
2020-12-12,01:40:00,DRY,3.57,8.07,58.0,778.00,1.6
2020-12-12,01:45:00,DRY,3.15,8.05,56.5,778.00,1.6
2020-12-12,01:50:00,DRY,2.67,8.23,58.3,778.00,1.2
2020-12-12,01:55:00,DRY,3.40,8.40,54.5,778.00,1.1
2020-12-12,02:00:00,DRY,2.57,8.30,52.7,778.00,1.6
2020-12-12,02:05:00,DRY,1.90,8.40,52.0,778.00,0.8
2020-12-12,02:10:00,DRY,2.13,8.40,50.7,778.00,1.0
2020-12-12,02:15:00,DRY,1.35,8.45,53.5,778.00,1.4
2020-12-12,02:20:00,DRY,2.07,8.20,55.7,778.00,1.4
2020-12-12,02:25:00,DRY,2.30,8.30,55.5,778.00,0.5
2020-12-12,02:30:00,DRY,1.77,8.10,57.3,778.00,0.7
2020-12-12,02:35:00,DRY,1.60,7.90,59.5,778.00,1.5
2020-12-12,02:40:00,DRY,2.57,7.97,58.0,778.00,0.6
2020-12-12,02:45:00,DRY,3.05,8.05,56.5,778.00,0.8
2020-12-12,02:50:00,DRY,1.27,8.10,54.3,778.00,0.6
2020-12-12,02:55:00,DRY,1.75,8.20,57.0,778.00,1.9
2020-12-12,03:00:00,DRY,4.00,8.33,52.7,778.00,1.7
2020-12-12,03:05:00,DRY,5.50,8.70,50.0,778.00,1.6
2020-12-12,03:10:00,DRY,5.90,8.67,50.3,778.00,1.3
2020-12-12,03:15:00,DRY,3.05,8.75,50.0,778.00,1.5
2020-12-12,03:20:00,DRY,3.30,8.67,48.0,778.00,1.4
2020-12-12,03:25:00,DRY,5.60,8.80,48.0,777.50,1.3
2020-12-12,03:30:00,DRY,5.80,8.73,48.7,777.33,1.4
2020-12-12,03:35:00,DRY,6.30,8.85,47.5,777.00,1.3
2020-12-12,03:40:00,DRY,4.07,8.83,48.3,777.67,1.6
2020-12-12,03:45:00,DRY,6.75,8.90,47.0,777.00,1.1
2020-12-12,03:50:00,DRY,5.13,9.03,45.3,777.00,1.2
2020-12-12,03:55:00,DRY,3.90,9.15,44.5,777.00,1.0
2020-12-12,04:00:00,DRY,4.30,8.80,47.7,777.00,1.4
2020-12-12,04:05:00,DRY,3.50,8.90,46.0,777.00,1.4
2020-12-12,04:10:00,DRY,3.77,8.90,47.3,777.00,1.3
2020-12-12,04:15:00,DRY,6.40,9.05,45.0,777.00,1.4
2020-12-12,04:20:00,DRY,4.17,9.03,45.3,777.00,1.1
2020-12-12,04:25:00,DRY,4.50,9.15,44.5,777.00,1.0
2020-12-12,04:30:00,DRY,4.27,9.03,44.7,777.00,1.4
2020-12-12,04:35:00,DRY,5.10,9.05,44.5,777.00,1.9
2020-12-12,04:40:00,DRY,4.10,9.00,44.7,777.00,1.4
2020-12-12,04:45:00,DRY,6.90,8.90,45.0,777.00,1.6
2020-12-12,04:50:00,DRY,4.00,8.93,45.3,777.00,1.4
2020-12-12,04:55:00,DRY,3.00,8.80,45.5,777.00,0.9
2020-12-12,05:00:00,DRY,5.53,8.87,46.0,777.00,1.5
2020-12-12,05:05:00,DRY,5.20,8.85,46.0,777.00,1.0
2020-12-12,05:10:00,DRY,4.50,8.93,44.0,777.00,1.4
2020-12-12,05:15:00,DRY,7.05,8.95,44.5,777.00,1.2
2020-12-12,05:20:00,DRY,3.47,8.87,45.3,777.00,1.6
2020-12-12,05:25:00,DRY,5.15,8.60,47.5,777.00,1.5
2020-12-12,05:30:00,DRY,3.10,8.70,45.7,777.00,0.7
2020-12-12,05:35:00,DRY,6.10,8.75,46.0,777.00,1.4
2020-12-12,05:40:00,DRY,3.27,8.73,45.7,777.00,0.9
2020-12-12,05:45:00,DRY,5.25,8.85,45.0,777.00,0.9
2020-12-12,05:50:00,DRY,4.93,8.90,44.3,777.00,1.3
2020-12-12,05:55:00,DRY,6.00,8.75,46.5,777.00,1.6
2020-12-12,06:00:00,DRY,5.63,8.70,46.0,777.00,1.2
2020-12-12,06:05:00,DRY,3.60,8.70,46.5,777.00,0.8
2020-12-12,06:10:00,DRY,6.47,8.63,47.3,777.00,1.2
2020-12-12,06:15:00,DRY,5.00,8.70,46.0,777.00,1.4
2020-12-12,06:20:00,DRY,4.87,8.73,45.7,777.00,1.1
2020-12-12,06:25:00,DRY,6.90,8.70,46.0,777.00,1.5
2020-12-12,06:30:00,DRY,5.30,8.80,44.3,777.00,1.2
2020-12-12,06:35:00,DRY,5.30,8.85,43.5,777.00,1.4
2020-12-12,06:40:00,DRY,5.57,8.93,41.0,777.00,1.9
2020-12-12,06:45:00,DRY,3.75,9.20,41.0,777.00,2.1
2020-12-12,06:50:00,DRY,6.77,9.03,40.7,777.00,1.5
2020-12-12,06:55:00,DRY,5.75,9.60,36.5,777.00,1.1
2020-12-12,07:00:00,DRY,6.07,8.97,42.0,777.00,1.1
2020-12-12,07:05:00,DRY,6.15,8.95,43.5,777.00,2.1
2020-12-12,07:10:00,DRY,5.67,8.70,45.0,777.00,1.3
2020-12-12,07:15:00,DRY,5.30,9.10,42.5,777.00,1.1
2020-12-12,07:20:00,DRY,5.30,8.60,45.7,777.00,1.2
2020-12-12,07:25:00,DRY,5.85,9.00,40.5,777.00,1.2
2020-12-12,07:30:00,DRY,5.83,9.10,40.0,777.00,1.4
2020-12-12,07:35:00,DRY,3.40,9.25,39.5,777.50,1.3
2020-12-12,07:40:00,DRY,4.93,8.93,41.0,777.00,2.0
2020-12-12,07:45:00,DRY,2.80,8.80,41.0,777.00,4.0
2020-12-12,07:50:00,DRY,5.23,9.10,39.3,777.00,4.9
2020-12-12,07:55:00,DRY,4.30,8.80,42.0,777.00,7.3
2020-12-12,08:00:00,DRY,4.83,8.97,40.3,777.00,9.5
2020-12-12,08:05:00,DRY,5.85,8.90,42.0,777.00,12.1
2020-12-12,08:10:00,DRY,3.43,8.90,40.3,777.00,14.3
2020-12-12,08:15:00,DRY,3.40,9.05,39.5,777.00,15.9
2020-12-12,08:20:00,DRY,4.23,9.10,38.3,777.00,18.3
2020-12-12,08:25:00,DRY,4.25,9.45,37.5,777.00,20.2
2020-12-12,08:30:00,DRY,5.30,9.40,38.0,777.00,22.4
2020-12-12,08:35:00,DRY,2.80,9.15,38.5,777.00,29.9
2020-12-12,08:40:00,DRY,3.50,9.30,40.3,777.00,161.8
2020-12-12,08:45:00,DRY,4.85,9.05,41.0,777.00,186.4
2020-12-12,08:50:00,DRY,3.53,9.07,40.7,777.00,206.4
2020-12-12,08:55:00,DRY,4.65,9.45,38.0,777.00,227.6
2020-12-12,09:00:00,DRY,3.20,9.77,37.0,777.67,247.4
2020-12-12,09:05:00,DRY,2.05,9.65,40.0,778.00,266.4
2020-12-12,09:10:00,DRY,2.90,9.67,37.3,777.67,285.7
2020-12-12,09:15:00,DRY,3.35,9.95,37.0,778.00,305.1
2020-12-12,09:20:00,DRY,4.77,9.80,38.0,778.00,324.0
2020-12-12,09:25:00,DRY,3.20,9.80,36.5,777.50,343.5
2020-12-12,09:30:00,DRY,6.20,9.93,36.0,778.00,361.4
2020-12-12,09:35:00,DRY,3.15,10.05,37.0,778.00,380.0
2020-12-12,09:40:00,DRY,3.40,10.10,35.0,778.00,398.4
2020-12-12,09:45:00,DRY,4.00,10.10,34.5,778.00,416.3
2020-12-12,09:50:00,DRY,5.70,10.00,35.7,778.00,433.8
2020-12-12,09:55:00,DRY,5.95,9.90,36.5,778.00,450.2
2020-12-12,10:00:00,DRY,4.27,10.03,39.3,778.00,467.1
2020-12-12,10:05:00,DRY,3.70,10.00,40.0,778.00,484.6
2020-12-12,10:10:00,DRY,4.90,10.00,38.3,778.00,501.3
2020-12-12,10:15:00,DRY,4.25,10.05,38.0,778.00,517.4
2020-12-12,10:20:00,DRY,3.23,10.17,36.0,778.00,533.7
2020-12-12,10:25:00,DRY,1.70,10.50,36.5,778.00,549.0
2020-12-12,10:30:00,DRY,2.63,10.40,35.3,778.00,562.6
2020-12-12,10:35:00,DRY,2.45,10.75,35.5,778.00,577.5
2020-12-12,10:40:00,DRY,2.83,10.77,36.0,778.00,589.6
2020-12-12,10:45:00,DRY,4.90,11.10,36.0,778.00,603.2
2020-12-12,10:50:00,DRY,3.03,10.87,34.3,778.00,617.0
2020-12-12,10:55:00,DRY,3.65,10.95,32.5,778.00,629.5
2020-12-12,11:00:00,DRY,4.63,11.07,32.3,778.00,640.2
2020-12-12,11:05:00,DRY,1.60,10.85,34.0,778.00,651.7
2020-12-12,11:10:00,DRY,3.40,10.97,34.0,778.00,664.4
2020-12-12,11:15:00,DRY,2.80,10.95,35.0,778.00,674.9
2020-12-12,11:20:00,DRY,4.53,10.90,34.0,778.00,685.1
2020-12-12,11:25:00,DRY,1.95,11.10,34.0,778.00,694.1
2020-12-12,11:30:00,DRY,3.07,11.10,33.0,778.00,704.6
2020-12-12,11:35:00,DRY,2.70,11.00,33.0,778.00,713.0
2020-12-12,11:40:00,DRY,3.77,10.93,34.3,777.67,722.9
2020-12-12,11:45:00,DRY,4.60,10.90,34.0,777.00,729.8
2020-12-12,11:50:00,DRY,4.13,11.07,34.3,777.00,740.1
2020-12-12,11:55:00,DRY,5.55,10.90,33.5,777.00,746.4
2020-12-12,12:00:00,DRY,3.97,10.90,33.7,777.00,754.0
2020-12-12,12:05:00,DRY,2.95,11.00,35.0,777.00,758.5
2020-12-12,12:10:00,DRY,3.40,11.07,36.3,777.00,765.6
2020-12-12,12:15:00,DRY,2.45,11.15,37.0,777.00,770.9
2020-12-12,12:20:00,DRY,2.20,11.17,36.7,777.00,778.2
2020-12-12,12:25:00,DRY,1.30,11.30,37.5,777.00,777.7
2020-12-12,12:30:00,DRY,2.57,11.10,35.3,777.00,785.1
2020-12-12,12:35:00,DRY,5.40,11.15,32.5,777.00,788.1
2020-12-12,12:40:00,DRY,2.70,11.20,35.0,777.00,792.9
2020-12-12,12:45:00,DRY,1.70,11.25,34.5,777.00,794.1
2020-12-12,12:50:00,DRY,2.50,11.23,35.7,777.00,796.0
2020-12-12,12:55:00,DRY,1.20,11.50,40.0,777.00,800.5
2020-12-12,13:00:00,DRY,2.07,11.20,34.7,777.00,805.5
2020-12-12,13:05:00,DRY,1.00,11.10,39.5,777.00,810.7
2020-12-12,13:10:00,DRY,2.67,11.00,35.7,776.00,823.2
2020-12-12,13:15:00,DRY,2.00,11.05,44.0,776.00,833.9
2020-12-12,13:20:00,DRY,2.30,11.20,40.0,776.00,845.8
2020-12-12,13:25:00,DRY,3.70,11.05,39.5,776.00,839.8
2020-12-12,13:30:00,DRY,1.00,11.20,34.0,776.00,806.9
2020-12-12,13:35:00,DRY,0.80,11.50,42.0,776.00,787.5
2020-12-12,13:40:00,DRY,2.20,11.33,42.7,776.00,836.3
2020-12-12,13:45:00,DRY,1.15,11.25,40.5,776.00,579.3
2020-12-12,13:50:00,DRY,2.17,10.93,41.3,776.00,595.2
2020-12-12,13:55:00,DRY,2.30,11.05,39.5,776.00,521.1
2020-12-12,14:00:00,DRY,1.40,10.67,38.0,776.00,620.5
2020-12-12,14:05:00,DRY,1.70,11.05,38.0,776.00,711.8
2020-12-12,14:10:00,DRY,2.27,10.70,35.7,776.00,643.6
2020-12-12,14:15:00,DRY,2.95,10.65,44.0,776.00,563.7
2020-12-12,14:20:00,DRY,1.73,10.47,46.7,776.00,771.7
2020-12-12,14:25:00,DRY,2.35,10.95,51.5,776.00,935.9
2020-12-12,14:30:00,DRY,1.77,11.27,50.0,776.00,962.8
2020-12-12,14:35:00,DRY,2.85,10.95,44.0,775.50,967.4
2020-12-12,14:40:00,DRY,2.00,11.10,39.7,775.67,955.9
2020-12-12,14:45:00,DRY,2.80,11.15,38.0,775.50,797.7
2020-12-12,14:50:00,DRY,2.30,11.33,46.0,775.33,575.4
2020-12-12,14:55:00,DRY,0.95,11.10,37.0,775.00,687.3
2020-12-12,15:00:00,DRY,1.00,11.17,40.3,775.00,647.6
2020-12-12,15:05:00,DRY,2.10,11.50,34.5,775.00,795.6
2020-12-12,15:10:00,DRY,1.47,11.03,39.0,775.00,703.2
2020-12-12,15:15:00,DRY,1.80,11.05,35.5,775.00,815.6
2020-12-12,15:20:00,DRY,1.13,11.67,34.3,775.00,783.7
2020-12-12,15:25:00,DRY,1.55,11.55,41.5,775.00,643.6
2020-12-12,15:30:00,DRY,1.87,11.03,37.3,775.00,613.6
2020-12-12,15:35:00,DRY,1.65,10.90,37.5,775.00,607.2
2020-12-12,15:40:00,DRY,1.43,10.57,38.3,775.00,434.6
2020-12-12,15:45:00,DRY,1.25,10.90,39.0,775.00,505.0
2020-12-12,15:50:00,DRY,1.43,10.77,38.0,775.00,664.3
2020-12-12,15:55:00,DRY,0.95,11.20,35.0,775.00,637.9
2020-12-12,16:00:00,DRY,2.47,10.83,36.3,775.00,352.3
2020-12-12,16:05:00,DRY,1.70,10.15,36.5,775.00,290.8
2020-12-12,16:10:00,DRY,1.57,10.27,38.7,775.00,273.3
2020-12-12,16:15:00,DRY,1.90,10.40,41.5,775.00,328.4
2020-12-12,16:20:00,DRY,1.77,9.80,39.3,775.00,318.4
2020-12-12,16:25:00,DRY,2.85,10.15,40.0,775.00,466.6
2020-12-12,16:30:00,DRY,2.70,9.93,40.7,775.00,496.9
2020-12-12,16:35:00,DRY,1.80,10.40,37.5,775.00,440.8
2020-12-12,16:40:00,DRY,0.87,10.07,40.0,775.00,392.2
2020-12-12,16:45:00,DRY,0.95,10.15,38.0,775.00,343.4
2020-12-12,16:50:00,DRY,1.23,10.03,37.3,775.00,309.8
2020-12-12,16:55:00,DRY,1.20,10.05,38.5,775.00,286.2
2020-12-12,17:00:00,DRY,1.63,10.33,39.3,775.00,265.5
2020-12-12,17:05:00,DRY,1.20,10.50,38.5,775.00,247.1
2020-12-12,17:10:00,DRY,1.27,9.80,57.7,775.00,226.5
2020-12-12,17:15:00,DRY,0.55,9.40,60.5,775.00,206.6
2020-12-12,17:20:00,DRY,0.60,9.47,60.3,775.00,187.6
2020-12-12,17:25:00,DRY,0.35,9.70,59.0,775.00,168.6
2020-12-12,17:30:00,DRY,0.53,9.83,56.0,775.00,148.6
2020-12-12,17:35:00,DRY,0.55,10.00,49.5,775.00,124.8
2020-12-12,17:40:00,DRY,0.63,9.87,51.3,775.00,100.2
2020-12-12,17:45:00,DRY,0.40,8.95,58.5,775.00,77.3
2020-12-12,17:50:00,DRY,1.20,8.63,54.3,775.00,56.4
2020-12-12,17:55:00,DRY,1.15,8.80,47.5,775.00,40.5
2020-12-12,18:00:00,DRY,0.73,8.93,46.0,775.00,27.6
2020-12-12,18:05:00,DRY,0.35,8.90,46.0,775.00,18.3
2020-12-12,18:10:00,DRY,0.77,8.87,46.7,775.00,12.3
2020-12-12,18:15:00,DRY,1.70,8.75,46.0,775.00,7.4
2020-12-12,18:20:00,DRY,1.63,8.50,46.7,775.00,5.1
2020-12-12,18:25:00,DRY,0.65,8.30,49.0,775.00,2.8
2020-12-12,18:30:00,DRY,1.70,8.07,50.0,775.00,1.8
2020-12-12,18:35:00,DRY,2.00,7.95,49.5,775.00,0.6
2020-12-12,18:40:00,DRY,1.37,8.03,47.3,775.00,1.4
2020-12-12,18:45:00,DRY,1.35,7.85,47.0,775.00,1.9
2020-12-12,18:50:00,DRY,2.20,7.67,49.3,775.00,1.2
2020-12-12,18:55:00,DRY,2.30,7.50,51.0,775.00,2.2